This is the latest recevied weather packets stored in our database for station/object E22ZMG-3. If no packets are shown the sender has not sent any weather packets the latest 10 day(s).
| Time | Temp. | Humidity | Pressure | Rain* | Wind** | Luminosity | Snow |
|---|---|---|---|---|---|---|---|
| 1777960788 | 37.78° C | 42% | 977 hPa | - | - | 0 W/m² | - |
| 1777960163 | 37.78° C | 41% | 977 hPa | - | - | 0 W/m² | - |
| 1777959533 | 37.78° C | 40% | 977 hPa | - | - | 0 W/m² | - |
| 1777958908 | 37.22° C | 42% | 978 hPa | - | - | 0 W/m² | - |
| 1777958283 | 37.22° C | 42% | 978 hPa | - | - | 0 W/m² | - |
| 1777957659 | 36.67° C | 43% | 978 hPa | - | - | 0 W/m² | - |
| 1777957034 | 36.67° C | 43% | 978 hPa | - | - | 0 W/m² | - |
| 1777956409 | 36.67° C | 44% | 979 hPa | - | - | 0 W/m² | - |
| 1777955784 | 35.56° C | 46% | 979 hPa | - | - | 0 W/m² | - |
| 1777955159 | 35.56° C | 45% | 979 hPa | - | - | 0 W/m² | - |
| 1777954535 | 34.44° C | 46% | 979 hPa | - | - | 0 W/m² | - |
| 1777953911 | 34.44° C | 47% | 979 hPa | - | - | 0 W/m² | - |
| 1777953286 | 35° C | 48% | 979 hPa | - | - | 0 W/m² | - |
| 1777952662 | 35.56° C | 46% | 979 hPa | - | - | 0 W/m² | - |
| 1777952037 | 34.44° C | 48% | 979 hPa | - | - | 0 W/m² | - |
| 1777951413 | 34.44° C | 49% | 980 hPa | - | - | 0 W/m² | - |
| 1777950789 | 34.44° C | 49% | 980 hPa | - | - | 0 W/m² | - |
| 1777950164 | 35° C | 49% | 980 hPa | - | - | 0 W/m² | - |
| 1777949540 | 33.89° C | 51% | 980 hPa | - | - | 0 W/m² | - |
| 1777948916 | 33.89° C | 49% | 980 hPa | - | - | 0 W/m² | - |
| 1777948292 | 33.89° C | 51% | 980 hPa | - | - | 0 W/m² | - |
| 1777947667 | 33.89° C | 50% | 980 hPa | - | - | 0 W/m² | - |
| 1777947043 | 33.33° C | 51% | 980 hPa | - | - | 0 W/m² | - |
| 1777946419 | 33.33° C | 51% | 979 hPa | - | - | 0 W/m² | - |
| 1777945794 | 32.22° C | 54% | 979 hPa | - | - | 0 W/m² | - |
* Rain since midnight (hover to see other rain measurements)
** Current wind speed in m/s (hover to see current wind gust speed)